Roda de Ter - l'Esquerda





Hora UTC 05:05
Temperatura 7.1 ºC
Humitat 93.0 %
Pressió 1020.3 hPa
Pluja 0.0 mm
Velocitat vent 0.0 km/h
Direcció vent SSE

Dades diàries 2020-09-29



Hora UTC (hivern +1h; estiu +2h)
Temperatura (ºC) Humitat (%) Pressió (hPa) Velocitat vent (km/h) Precipitació (mm)
Hora UTC Aire Humitat Pressió Vel. Dir. Vel. Max Dir. Intent. màx 5 min.
00:05 9.4 90.0 1020.0 0.0 SSE 0.0 0.0
00:10 9.2 90.0 1020.0 1.6 SSE 1.6 0.0
00:15 9.2 91.0 1019.9 0.0 SSE 3.2 0.0
00:20 9.2 91.0 1020.1 0.0 SSE 3.2 0.0
00:25 9.2 91.0 1020.0 0.0 SSE 0.0 0.0
00:30 9.1 91.0 1020.0 0.0 SSE 1.6 0.0
00:35 9.1 91.0 1019.9 1.6 SSE 1.6 0.0
00:40 9.1 91.0 1019.8 1.6 SSE 3.2 0.0
00:45 8.9 90.0 1019.9 1.6 SSE 3.2 0.0
00:50 8.8 91.0 1019.9 0.0 SSE 1.6 0.0
00:55 8.8 91.0 1019.9 0.0 SSE 1.6 0.0
01:00 8.9 91.0 1019.9 0.0 SSE 1.6 0.0
01:05 8.8 91.0 1019.9 0.0 SSE 1.6 0.0
01:10 8.8 91.0 1020.0 0.0 SSE 1.6 0.0
01:15 8.7 91.0 1019.9 0.0 SSE 1.6 0.0
01:20 8.8 91.0 1019.8 0.0 SSE 1.6 0.0
01:25 8.7 91.0 1019.9 0.0 SSE 1.6 0.0
01:30 8.7 91.0 1019.8 1.6 SSE 1.6 0.0
01:35 8.8 91.0 1020.0 0.0 SSE 1.6 0.0
01:35 8.8 91.0 1019.8 0.0 SSE 3.2 0.0
01:45 8.6 91.0 1019.9 0.0 SSE 3.2 0.0
01:50 8.6 91.0 1019.8 0.0 SSE 1.6 0.0
01:55 8.5 91.0 1019.7 1.6 SSE 3.2 0.0
02:00 8.4 91.0 1019.7 0.0 SSE 3.2 0.0
02:05 8.2 91.0 1019.9 0.0 SSE 3.2 0.0
02:10 8.1 91.0 1020.0 3.2 SSE 3.2 0.0
02:15 8.0 92.0 1020.0 3.2 SSE 4.8 0.0
02:20 8.1 92.0 1020.1 3.2 SSE 3.2 0.0
02:25 8.3 92.0 1020.0 0.0 SSE 3.2 0.0
02:30 8.3 92.0 1019.9 1.6 SSE 1.6 0.0
02:35 8.2 92.0 1019.9 0.0 SSE 1.6 0.0
02:40 8.2 92.0 1019.9 0.0 SSE 1.6 0.0
02:45 8.1 92.0 1019.9 1.6 SSE 3.2 0.0
02:50 8.1 92.0 1019.7 1.6 SSE 3.2 0.0
02:55 8.2 92.0 1019.8 1.6 SSE 3.2 0.0
02:55 8.2 92.0 1019.8 0.0 SSE 3.2 0.0
03:05 8.1 92.0 1019.7 0.0 SSE 1.6 0.0
03:10 7.7 92.0 1019.8 0.0 SSE 3.2 0.0
03:15 7.8 92.0 1019.8 0.0 SSE 3.2 0.0
03:20 7.8 92.0 1019.8 0.0 SSE 0.0 0.0
03:25 7.6 92.0 1019.8 0.0 SSE 0.0 0.0
03:30 7.5 92.0 1019.7 0.0 SSE 0.0 0.0
03:35 7.6 92.0 1019.7 0.0 SSE 1.6 0.0
03:40 7.4 92.0 1019.7 1.6 SSE 1.6 0.0
03:45 7.6 92.0 1019.8 0.0 SSE 1.6 0.0
03:50 7.4 92.0 1019.7 0.0 SSE 1.6 0.0
03:55 7.2 92.0 1019.7 1.6 SSE 3.2 0.0
04:00 7.3 92.0 1019.7 1.6 SSE 3.2 0.0
04:05 7.4 92.0 1019.7 0.0 SSE 3.2 0.0
04:10 7.4 92.0 1019.8 0.0 SSE 1.6 0.0
04:15 7.3 92.0 1019.9 0.0 SSE 1.6 0.0
04:20 7.3 93.0 1019.9 0.0 SSE 0.0 0.0
04:25 7.2 92.0 1020.0 0.0 SSE 0.0 0.0
04:30 7.1 92.0 1020.1 0.0 SSE 0.0 0.0
04:35 7.2 93.0 1020.0 0.0 SSE 1.6 0.0
04:40 7.3 93.0 1020.0 0.0 SSE 1.6 0.0
04:45 7.3 93.0 1020.0 0.0 SSE 1.6 0.0
04:50 7.3 92.0 1020.0 0.0 SSE 1.6 0.0
04:55 7.2 92.0 1020.1 0.0 SSE 0.0 0.0
05:00 7.1 92.0 1020.2 0.0 SSE 0.0 0.0
05:05 7.1 93.0 1020.3 0.0 SSE 0.0 0.0
Màxima 9.4 93.0 1020.3 3.2 SSE 4.8 0.0
Mínima 7.0 90.0 1019.7
Total 0.0